Wind_Speed
8 8 8 7 6 4 3 2 1 2 4 5 6 6 7 7 7 7 8 8 8 8 8 8 8 9 9 9 10 10 11 11 11 11 11 11 11 11 11 11 11 11 11 11 12 12 12 12 13
8 8 8 8 7 5 4 3 2 1 2 4 5 5 5 6 6 6 6 7 7 8 8 8 9 9 10 10 11 11 11 12 12 12 12 12 12 11 11 11 11 11 11 11 11 11 11 12 12
8 8 8 7 6 5 5 4 2 0 2 3 4 4 5 5 5 6 6 7 8 8 9 9 10 11 11 12 12 12 12 12 12 12 12 12 12 11 11 10 10 10 10 11 11 11 12 12 13
6 7 6 6 5 4 3 3 2 1 2 3 4 5 6 6 6 7 7 8 9 9 10 11 12 12 13 13 13 13 13 13 13 13 13 12 12 11 11 10 10 10 10 11 11 12 12 13 13
5 5 5 4 3 3 2 2 3 4 5 6 6 7 8 8 8 9 9 10 11 12 12 13 14 14 14 14 14 14 14 14 14 14 13 13 12 12 12 11 11 11 12 12 12 13 13 14 14
4 4 4 4 4 3 3 4 5 6 7 8 9 10 11 10 10 11 12 13 13 13 14 14 15 15 16 16 16 16 16 15 15 15 14 14 13 13 13 13 13 13 13 14 14 14 14 14 15
4 5 5 5 5 5 5 6 7 8 9 9 10 11 13 13 12 13 14 14 15 15 15 16 16 17 17 17 17 17 17 17 17 16 16 15 15 15 14 14 15 15 15 15 15 15 15 16 16
6 6 6 6 7 7 7 7 7 8 9 9 10 11 13 14 14 15 15 16 16 17 17 17 18 18 18 18 19 19 19 19 18 18 17 17 17 16 16 17 17 17 17 17 17 17 17 18 18
8 8 8 8 9 9 8 8 8 8 9 8 8 10 12 14 15 15 16 16 17 17 18 18 19 19 20 20 20 20 20 20 20 19 19 19 19 19 19 19 19 19 19 19 20 20 20 21 21
11 11 10 9 10 10 10 10 9 9 9 8 8 10 11 13 15 15 16 16 17 18 18 19 20 20 20 21 21 21 21 21 21 21 21 22 22 22 22 22 22 22 22 23 23 23 24 24 25
14 13 12 11 11 11 12 11 11 10 11 10 10 11 12 14 15 16 16 17 18 19 20 20 20 21 21 22 22 22 23 23 23 24 24 24 24 25 25 25 26 26 26 27 27 27 28 28 29
16 16 15 14 13 13 13 13 13 12 12 12 12 13 14 15 16 17 17 18 19 20 21 21 21 22 22 23 24 24 25 25 26 26 26 27 27 28 29 29 29 30 31 31 32 32 32 33 33
19 19 18 18 17 16 16 16 15 15 14 14 14 15 16 17 18 18 19 19 20 21 22 23 23 23 24 25 26 26 27 28 28 29 30 30 31 32 32 33 34 34 35 36 36 36 37 37 38
21 21 21 20 20 19 19 19 18 17 16 17 17 18 19 19 20 20 20 21 21 22 23 23 24 25 25 26 27 28 29 30 31 32 32 33 34 35 36 37 37 39 40 40 41 41 41 42 42
22 23 23 22 21 21 21 22 20 19 18 19 20 20 20 20 21 21 21 21 22 22 23 24 25 25 26 27 29 30 31 31 32 34 35 36 37 38 39 40 41 42 44 44 45 45 46 46 47
23 23 24 24 22 22 22 23 23 19 19 20 21 21 21 21 21 21 21 21 22 22 23 24 25 26 27 28 29 30 31 32 34 35 36 37 39 40 41 42 44 46 46 47 47 48 49 50 51
23 23 24 24 23 22 21 22 23 20 19 20 21 21 21 21 21 21 21 22 22 23 23 24 25 26 27 28 29 30 32 33 35 36 37 39 40 42 43 44 45 47 48 49 50 50 51 52 53
23 23 23 23 22 21 20 21 22 20 20 20 21 21 22 22 21 22 23 23 24 24 25 26 26 27 28 29 30 31 32 34 35 37 38 40 41 43 44 45 46 48 49 50 52 52 53 54 55
22 21 22 21 20 19 19 19 20 19 19 20 20 21 22 23 23 23 24 25 26 26 27 27 28 28 29 30 30 31 32 33 35 37 38 40 42 43 45 46 47 49 50 52 53 54 55 56 57
21 20 20 20 19 17 18 18 18 18 18 19 21 22 23 23 24 24 25 26 26 27 28 28 29 29 29 30 30 31 32 33 35 37 38 40 42 44 45 47 48 50 51 53 54 56 57 58 59
19 19 18 18 18 17 17 16 17 17 19 20 22 23 24 24 24 25 26 27 28 29 30 30 30 31 31 31 31 32 33 34 36 38 39 41 42 44 45 47 49 50 52 53 55 57 59 60 61
18 18 17 17 18 18 18 17 17 18 19 21 23 24 25 26 26 27 28 29 30 30 31 31 31 31 31 32 32 33 34 35 37 38 40 41 43 44 46 47 49 51 52 54 56 58 60 62 63
18 17 17 17 18 18 18 19 18 19 21 22 24 25 27 27 28 29 29 30 30 30 30 30 30 30 30 31 32 33 34 35 37 38 40 41 43 45 47 49 51 53 55 56 58 60 62 64 65
18 18 18 18 18 18 19 20 21 20 22 24 25 26 27 28 29 30 30 29 30 30 30 30 29 29 30 31 32 34 35 36 38 40 41 43 45 47 49 51 53 55 57 59 61 63 65 67 68
19 19 19 19 19 19 20 22 22 22 23 25 26 27 28 29 29 29 29 29 29 30 30 29 29 30 32 33 35 36 37 39 40 42 44 46 48 50 53 55 57 60 62 64 66 67 68 70 71
20 21 21 22 21 21 22 22 23 24 25 26 27 28 29 30 29 28 29 29 30 30 30 30 32 33 35 36 38 40 42 43 45 47 49 51 53 56 58 61 63 65 67 69 71 72 73 74 75
21 22 23 24 24 23 23 23 24 26 28 29 30 30 30 30 29 29 29 30 31 31 32 34 35 37 38 40 42 44 46 48 50 53 55 58 60 63 65 67 69 71 73 75 76 77 78 79 79
24 24 25 26 28 27 25 24 26 28 29 30 31 30 30 30 30 30 31 32 33 35 36 37 39 41 43 45 47 49 52 54 57 59 62 64 67 69 71 74 76 78 79 80 81 82 82 82 82
26 26 27 29 30 30 29 26 28 30 31 32 32 31 31 31 32 33 35 35 36 38 39 41 43 45 47 50 52 55 57 60 62 65 68 70 72 75 77 79 81 82 83 84 84 85 85 85 85
28 28 30 31 32 32 32 30 30 31 33 34 33 32 33 34 35 36 37 38 40 41 43 45 47 50 52 55 57 60 62 65 68 70 73 75 77 80 82 83 84 85 85 85 85 85 85 85 85
Wind_Direction
62 66 67 63 63 66 74 94 159 212 219 219 219 216 215 219 223 230 234 239 242 245 246 249 250 251 253 256 258 261 263 263 262 264 266 267 269 270 270 270 271 271 271 271 271 271 270 268 266
64 67 65 63 63 63 63 66 91 185 214 212 209 206 206 213 219 223 228 236 241 245 250 253 255 257 259 262 264 265 266 265 266 268 269 271 272 271 270 270 270 270 270 271 271 272 272 272 271
62 64 66 63 59 57 54 49 43 98 218 215 211 210 213 220 224 232 236 241 245 250 255 258 261 264 266 267 267 268 268 268 270 272 272 273 273 271 271 270 268 267 269 270 271 272 273 274 274
53 56 56 56 53 53 49 37 9 299 259 246 241 240 238 238 240 242 245 249 252 256 259 262 265 268 269 269 269 269 268 270 271 273 273 274 273 271 270 269 269 269 271 271 272 273 274 274 275
34 37 38 34 25 18 359 316 290 273 266 261 257 258 257 251 251 253 254 255 258 261 263 265 267 269 270 270 270 270 270 270 271 271 272 272 272 270 270 269 270 271 272 272 273 274 274 275 276
5 7 11 2 349 333 303 288 278 274 271 268 266 265 266 263 260 260 262 262 263 265 267 268 269 270 270 270 270 270 270 270 270 270 269 270 270 269 269 269 270 272 273 274 275 275 275 277 277
327 337 342 336 327 319 309 298 285 279 278 275 271 267 270 272 270 267 266 266 266 267 268 269 270 270 270 269 270 270 270 270 269 269 268 269 269 268 268 268 270 272 273 273 274 275 277 278 279
300 308 315 318 317 314 314 307 300 291 284 283 277 270 271 276 274 272 271 270 268 268 268 269 270 270 270 270 270 270 269 269 269 268 267 267 267 268 268 268 269 270 271 271 273 274 276 278 279
288 293 300 307 309 310 312 311 310 305 299 294 282 274 273 276 277 277 276 275 272 270 270 270 270 270 270 269 269 269 268 268 267 266 265 265 266 267 268 268 269 270 270 271 273 274 276 278 279
281 286 293 298 302 305 307 308 309 307 307 304 290 281 278 278 279 279 278 276 274 273 272 270 270 270 270 269 268 268 267 267 266 265 265 265 266 267 268 268 269 269 271 272 273 274 276 277 279
277 282 287 291 295 299 300 303 303 303 302 302 295 290 284 280 279 279 277 275 273 273 272 271 271 271 270 268 268 267 267 266 265 265 265 265 266 267 268 269 269 270 271 272 273 274 276 277 278
273 278 282 285 288 291 293 296 298 298 297 297 294 290 288 285 283 282 279 276 274 273 273 273 273 272 270 269 267 266 266 266 266 266 266 266 266 267 268 269 270 270 271 272 273 274 276 277 278
272 276 279 282 284 286 288 290 291 292 294 292 290 287 286 286 286 285 283 280 277 276 275 275 274 272 271 270 268 267 266 267 267 267 267 266 267 268 268 269 270 270 271 272 274 275 275 276 278
272 274 277 279 281 284 286 286 287 290 292 290 288 286 286 286 287 286 284 283 281 279 278 276 275 274 273 271 270 270 269 270 270 269 269 269 269 269 270 270 270 271 271 272 274 275 276 277 278
271 274 276 277 279 281 282 283 286 288 289 289 287 287 287 287 287 287 286 283 282 280 279 278 278 277 276 274 273 273 272 272 272 272 272 271 271 271 271 272 272 272 273 274 275 275 276 277 278
270 272 274 276 278 278 280 281 285 288 288 287 287 288 289 289 290 289 288 286 284 282 281 280 279 278 278 278 277 277 276 275 274 274 274 273 273 273 274 274 274 274 275 276 276 276 277 277 278
270 271 273 276 277 277 278 280 285 289 287 286 287 288 289 290 291 291 290 289 287 286 284 282 281 280 280 280 280 279 279 278 278 277 277 276 276 276 277 277 277 277 278 278 278 278 278 278 278
270 271 271 273 276 277 277 279 284 288 286 286 286 287 289 290 291 291 291 291 289 288 286 285 283 283 283 282 282 282 281 281 280 280 280 279 279 279 279 279 279 279 279 279 279 279 279 279 279
270 270 270 272 274 275 276 278 281 282 282 283 284 285 287 288 289 290 290 290 290 289 288 287 286 285 285 284 284 284 283 283 283 283 283 283 283 282 282 282 281 281 281 281 281 282 281 281 280
268 268 269 272 273 273 275 277 278 278 279 281 282 283 285 287 289 289 289 290 290 290 289 288 287 287 287 287 287 287 286 286 285 285 285 285 285 285 285 285 284 284 283 283 283 283 282 282 282
266 266 268 271 274 274 274 274 276 277 278 280 281 284 286 289 290 291 291 291 290 290 290 290 290 290 290 290 290 289 288 288 287 287 287 287 287 287 287 287 286 286 285 285 284 284 284 283 282
265 266 266 268 272 275 277 277 277 279 279 281 283 286 288 289 291 291 290 290 289 289 289 290 291 292 292 292 292 291 291 290 290 289 289 288 288 288 288 287 287 287 287 286 286 285 284 284 283
264 266 266 268 271 274 278 280 280 281 281 284 286 287 288 289 290 290 289 288 288 289 290 292 293 294 294 294 294 293 293 293 293 292 291 291 290 290 289 289 288 288 287 287 286 285 285 284 284
264 266 267 269 273 276 279 282 283 285 285 287 287 287 288 289 289 289 289 288 288 290 291 293 294 295 296 296 296 296 295 295 295 294 294 294 293 293 292 291 291 290 289 288 287 286 285 284 283
265 267 270 271 274 279 281 282 285 288 287 288 288 288 289 289 290 289 288 288 289 290 292 294 295 296 297 297 298 298 298 298 298 297 296 296 295 295 294 294 293 292 291 289 288 287 286 285 284
266 269 273 277 279 281 282 285 288 289 290 289 289 289 290 290 289 287 286 287 289 291 293 295 296 298 299 299 299 299 299 299 299 298 297 297 296 296 295 295 294 293 292 291 289 288 287 285 284
267 271 275 279 281 283 284 287 287 289 289 289 290 290 290 289 288 286 287 288 290 293 294 296 297 299 300 300 300 300 300 300 299 299 298 298 297 296 296 295 294 293 292 291 290 288 287 286 284
269 273 277 280 284 285 285 287 289 290 289 289 290 290 290 290 288 287 288 290 293 295 296 297 299 300 301 301 302 301 301 301 301 300 300 299 298 297 296 295 294 293 292 291 290 288 287 285 284
273 275 277 280 283 286 287 289 292 291 290 289 289 290 290 289 288 289 291 293 295 297 298 300 301 302 302 303 302 302 302 302 301 301 300 299 299 298 297 296 295 294 293 292 290 289 287 286 284
273 275 278 281 283 285 288 292 292 291 290 289 289 289 290 290 290 291 293 295 297 299 300 301 302 303 303 303 303 303 303 302 302 301 301 300 299 299 298 297 296 295 294 293 291 290 288 286 284
Height
5860 5859 5860 5860 5861 5861 5861 5861 5861 5862 5862 5863 5863 5864 5864 5865 5867 5869 5868 5867 5868 5868 5868 5869 5869 5869 5869 5869 5869 5869 5869 5869 5869 5869 5868 5868 5868 5868 5868 5868 5868 5868 5868 5868 5868 5868 5868 5868 5869
5861 5861 5862 5862 5862 5862 5862 5862 5862 5862 5863 5863 5863 5863 5863 5864 5864 5865 5865 5865 5866 5866 5867 5867 5867 5867 5867 5867 5867 5867 5867 5867 5866 5866 5866 5866 5865 5865 5865 5865 5865 5865 5865 5865 5865 5865 5865 5866 5866
5862 5862 5863 5862 5862 5862 5863 5862 5863 5863 5863 5863 5863 5863 5863 5863 5863 5864 5864 5864 5864 5865 5865 5865 5865 5865 5865 5865 5865 5865 5865 5864 5864 5864 5863 5863 5863 5862 5862 5862 5862 5862 5862 5862 5862 5863 5863 5863 5863
5863 5864 5864 5864 5863 5863 5862 5863 5863 5863 5863 5863 5863 5863 5862 5863 5862 5863 5862 5863 5863 5863 5863 5863 5863 5863 5863 5863 5863 5862 5862 5862 5861 5861 5861 5860 5860 5860 5860 5860 5860 5860 5860 5860 5860 5860 5860 5860 5860
5864 5864 5864 5863 5863 5863 5862 5862 5862 5862 5862 5862 5862 5862 5861 5862 5861 5861 5861 5861 5861 5861 5861 5861 5861 5860 5860 5860 5860 5860 5859 5859 5859 5858 5858 5858 5857 5857 5857 5857 5857 5857 5857 5857 5857 5857 5857 5857 5857
5864 5864 5864 5863 5862 5862 5862 5861 5861 5861 5861 5861 5861 5860 5859 5860 5859 5859 5859 5858 5858 5858 5858 5858 5858 5857 5857 5857 5857 5857 5856 5856 5856 5855 5855 5855 5854 5854 5854 5854 5854 5854 5854 5854 5853 5853 5853 5853 5853
5864 5863 5863 5862 5862 5861 5861 5860 5859 5859 5859 5859 5859 5858 5857 5857 5857 5856 5856 5856 5855 5855 5855 5855 5855 5855 5854 5854 5854 5854 5853 5853 5852 5852 5852 5851 5851 5851 5851 5850 5850 5850 5850 5850 5850 5850 5850 5849 5849
5862 5863 5862 5861 5860 5860 5860 5859 5858 5858 5857 5857 5856 5856 5855 5855 5854 5853 5853 5852 5852 5852 5852 5852 5851 5851 5851 5851 5850 5850 5850 5849 5849 5848 5848 5848 5848 5847 5847 5847 5847 5847 5847 5846 5846 5846 5846 5845 5845
5861 5862 5860 5860 5859 5859 5858 5857 5857 5856 5856 5855 5854 5854 5853 5852 5850 5850 5850 5849 5849 5849 5848 5848 5848 5847 5847 5847 5846 5846 5846 5845 5845 5844 5844 5844 5844 5844 5843 5843 5843 5843 5842 5842 5842 5842 5841 5841 5840
5860 5859 5859 5858 5858 5857 5856 5856 5855 5854 5854 5853 5852 5851 5850 5849 5848 5847 5846 5845 5845 5845 5844 5844 5843 5843 5843 5842 5842 5842 5841 5841 5841 5840 5840 5840 5840 5839 5839 5838 5838 5838 5838 5837 5837 5837 5836 5836 5835
5857 5857 5857 5856 5856 5855 5854 5854 5853 5852 5851 5851 5850 5848 5847 5846 5845 5844 5843 5842 5841 5840 5840 5839 5839 5839 5838 5838 5837 5837 5836 5836 5836 5835 5835 5835 5835 5834 5834 5833 5833 5833 5832 5832 5831 5831 5830 5830 5829
5855 5854 5854 5853 5853 5853 5852 5851 5850 5850 5849 5848 5847 5845 5844 5843 5841 5840 5839 5838 5837 5836 5835 5835 5835 5834 5834 5833 5832 5832 5831 5831 5830 5830 5830 5829 5829 5828 5828 5828 5827 5826 5826 5825 5825 5824 5824 5823 5822
5851 5851 5850 5850 5850 5849 5849 5848 5847 5846 5846 5845 5843 5842 5840 5839 5838 5837 5836 5835 5833 5832 5831 5830 5829 5829 5828 5828 5827 5826 5826 5825 5825 5824 5823 5823 5822 5822 5821 5821 5820 5819 5819 5818 5817 5817 5816 5815 5814
5847 5847 5846 5846 5846 5846 5845 5844 5844 5843 5843 5841 5840 5838 5836 5835 5834 5832 5831 5830 5829 5828 5826 5825 5824 5824 5823 5822 5821 5821 5820 5819 5819 5818 5817 5816 5816 5815 5814 5813 5813 5812 5811 5810 5809 5809 5808 5807 5806
5843 5843 5842 5842 5842 5841 5841 5840 5839 5839 5838 5837 5835 5833 5832 5830 5829 5828 5827 5826 5824 5823 5822 5820 5819 5818 5817 5816 5816 5815 5814 5813 5812 5811 5810 5809 5808 5807 5806 5805 5804 5803 5802 5801 5800 5799 5798 5797 5796
5839 5839 5838 5838 5838 5837 5838 5836 5835 5835 5834 5832 5830 5829 5827 5826 5825 5823 5822 5821 5820 5818 5817 5815 5814 5813 5812 5811 5810 5809 5807 5806 5805 5804 5802 5801 5800 5799 5797 5797 5795 5793 5792 5792 5791 5789 5788 5787 5785
5834 5834 5833 5833 5834 5833 5833 5831 5830 5830 5829 5827 5826 5824 5823 5821 5820 5819 5817 5816 5815 5813 5812 5810 5809 5807 5806 5805 5803 5802 5801 5799 5797 5796 5794 5793 5791 5790 5789 5788 5786 5784 5782 5781 5780 5779 5777 5776 5774
5830 5830 5829 5829 5829 5829 5828 5827 5825 5825 5824 5823 5821 5820 5818 5817 5816 5814 5813 5811 5810 5808 5807 5805 5803 5802 5800 5799 5797 5796 5794 5792 5790 5788 5786 5784 5783 5781 5779 5778 5776 5774 5772 5770 5768 5767 5765 5764 5761
5825 5825 5825 5824 5824 5824 5824 5823 5822 5821 5820 5819 5817 5816 5814 5813 5811 5810 5808 5806 5804 5803 5801 5799 5797 5796 5794 5792 5791 5789 5787 5785 5782 5780 5778 5776 5773 5771 5770 5768 5766 5763 5761 5759 5757 5754 5752 5751 5747
5820 5821 5820 5820 5820 5820 5820 5820 5819 5817 5816 5815 5813 5812 5810 5809 5807 5805 5803 5801 5799 5797 5795 5793 5791 5789 5788 5786 5784 5782 5780 5777 5775 5772 5770 5767 5764 5762 5760 5757 5755 5752 5750 5747 5745 5741 5739 5737 5733
5816 5816 5816 5816 5816 5816 5816 5816 5815 5814 5812 5810 5809 5807 5805 5804 5802 5800 5799 5796 5794 5791 5789 5787 5784 5783 5781 5779 5777 5774 5772 5770 5767 5764 5761 5758 5755 5753 5749 5747 5743 5740 5737 5735 5732 5728 5725 5722 5719
5812 5812 5812 5812 5812 5812 5813 5812 5811 5809 5808 5806 5804 5802 5800 5799 5797 5795 5793 5790 5788 5785 5783 5780 5778 5776 5774 5771 5769 5766 5764 5761 5759 5756 5753 5749 5746 5743 5739 5736 5732 5729 5725 5722 5718 5714 5710 5706 5703
5808 5808 5808 5808 5808 5808 5807 5807 5807 5805 5803 5802 5800 5797 5795 5793 5791 5789 5787 5784 5781 5778 5776 5774 5772 5769 5767 5764 5761 5759 5756 5753 5750 5747 5743 5740 5736 5732 5729 5725 5721 5717 5713 5709 5705 5700 5695 5691 5687
5804 5804 5804 5804 5804 5804 5803 5802 5802 5800 5798 5796 5794 5792 5789 5787 5785 5782 5780 5777 5774 5772 5770 5768 5765 5762 5759 5756 5753 5751 5748 5744 5741 5737 5734 5730 5726 5721 5717 5712 5708 5703 5699 5694 5689 5684 5679 5675 5670
5800 5800 5800 5800 5800 5800 5798 5797 5797 5795 5792 5790 5788 5786 5783 5781 5778 5776 5773 5770 5768 5765 5763 5761 5758 5755 5752 5749 5746 5742 5739 5735 5731 5727 5723 5719 5714 5709 5704 5699 5694 5689 5683 5678 5672 5667 5662 5656 5651
5795 5795 5796 5795 5795 5794 5793 5792 5792 5789 5786 5784 5782 5779 5777 5774 5772 5769 5766 5764 5761 5759 5756 5754 5751 5748 5744 5741 5737 5733 5729 5725 5721 5716 5712 5707 5701 5696 5690 5684 5678 5672 5666 5660 5653 5648 5642 5636 5630
5790 5790 5790 5789 5788 5788 5788 5787 5785 5782 5780 5777 5775 5772 5770 5768 5765 5762 5760 5757 5754 5752 5749 5746 5743 5739 5736 5732 5728 5723 5719 5714 5709 5704 5698 5692 5687 5681 5674 5667 5661 5654 5647 5639 5632 5626 5620 5613 5608
5785 5785 5785 5783 5782 5781 5782 5781 5779 5776 5773 5771 5768 5765 5763 5761 5758 5755 5752 5750 5747 5744 5741 5737 5734 5730 5726 5721 5717 5712 5706 5701 5695 5689 5683 5677 5670 5663 5656 5648 5641 5633 5625 5617 5610 5603 5596 5589 5584
5780 5780 5778 5777 5776 5775 5774 5777 5773 5769 5766 5763 5761 5758 5756 5753 5751 5747 5745 5742 5739 5735 5732 5728 5724 5719 5715 5710 5705 5699 5693 5687 5680 5674 5666 5659 5652 5643 5635 5627 5619 5610 5601 5593 5584 5578 5570 5564 5558
5773 5773 5772 5771 5770 5767 5767 5771 5765 5761 5757 5755 5753 5751 5748 5745 5742 5739 5736 5733 5730 5726 5722 5718 5713 5708 5703 5697 5691 5685 5679 5672 5664 5656 5648 5640 5631 5622 5613 5604 5595 5586 5577 5567 5559 5551 5544 5536 5531